Location: Bavegemberg
(50.9500°N, 3.8833°E)
Time: 21:17:15
(UTC+00:00)

SJ 16-02 - Pass Details

Date: 23 May 2024
Orbit: 594 x 605 km, 75.0° (Epoch: 14 June)

Event Time Altitude Azimuth Distance (km) Brightness Sun altitude
Exits shadow 01:40:15 12° 162° (SSE) 1,815 3.4 -13.8°
Maximum altitude 01:43:44 31° 102° (ESE) 1,049 2.7 -13.5°
Drops below altitude 10° 01:47:33 10° 40° (NE) 1,940 5.3 -13.2°
Sets 01:49:57 0° 30° (NNE) 2,847 6.9 -13.0°
